[[{"header":{"parameterUnit":"m.s-1","parameterCategory":1,"la1":30.2991,"la2":30.254,"lo1":-89.0895,"lo2":-89.0444,"dy":0.0017,"dx":0.0017,"nx":28,"ny":28,"refTime":"2024-07-03T21:00:00:Z","depth":0,"parameterNumber":2,"parameterNumberName":"U-component_of_WINDS"},"data":[0,0,0,0,0,0,0,0,0,0,0,0,0,0,0,0,0,0,0,0,0,0,0,0,0,0,0,0,0,0,0,0,0,0,0,0,0,0,0,0,0,0,0,0,0,0,0,0,0,0,0,0,0,0,0,0,0,0,1.3646,1.3647,0,1.3707,1.3708,1.3709,1.3673,1.3671,1.3669,1.3668,1.3733,1.3737,1.374,0,0,0,0,0,0,0,0,0,0,0,0,0,1.3501,1.3503,1.3646,1.3647,1.3648,1.3707,1.3708,1.3709,1.3673,1.3671,1.3669,1.3667,1.3732,1.3736,1.374,0,0,0,0,0,0,0,0,0,0,0,0,0,1.3563,1.3504,1.3646,1.3637,1.3637,1.3707,1.3708,1.3709,1.3674,1.3671,1.3668,1.3666,1.3731,1.3736,1.3741,1.3824,0,0,1.3756,1.3758,0,0,0,0,0,0,0,0,1.356,1.3568,1.3638,1.3638,1.3638,1.368,1.3681,1.3748,1.3674,1.366,1.3668,1.3665,1.3718,1.3724,1.3741,1.3827,1.383,1.3757,1.376,1.3762,1.3763,0,0,0,0,0,0,0,1.3555,1.3566,1.367,1.3639,1.3639,1.363,1.3636,1.3693,1.3703,1.3661,1.3658,1.3666,1.3717,1.3736,1.3742,1.3831,1.3756,1.3761,1.3764,1.3766,1.3987,1.399,0,0,0,0,0,0,1.3551,1.3562,1.3668,1.3672,1.3591,1.3635,1.3642,1.3669,1.3702,1.3704,1.3668,1.3664,1.3729,1.3736,1.3744,1.3843,1.3762,1.3767,1.3769,1.3984,1.3988,1.3991,0,0,0,0,0,0,1.3548,1.3561,1.3666,1.3617,1.3629,1.364,1.3671,1.3671,1.369,1.3707,1.3709,1.3685,1.3727,1.3737,1.3804,1.3845,1.3769,1.3773,1.3981,1.3985,1.3989,1.4042,0,0,0,0,0,0,1.3544,1.356,1.3592,1.3617,1.3632,1.3724,1.3674,1.3675,1.3699,1.3694,1.3724,1.3727,1.3726,1.3797,1.3809,1.3851,1.3777,1.3977,1.3983,1.3988,1.4037,1.4048,1.4057,0,0,0,0,0,1.3539,1.3605,1.3594,1.3607,1.3672,1.3727,1.3735,1.3732,1.3702,1.3734,1.3745,1.3726,1.3838,1.3804,1.3817,1.3861,1.3975,1.3981,1.3988,1.4032,1.4046,1.4057,0,0,0,0,0,0,1.3585,1.3608,1.3596,1.3672,1.3697,1.372,1.3761,1.3746,1.3781,1.3776,1.3771,1.3778,1.3847,1.3861,1.3822,1.3943,1.3902,1.3911,1.3931,1.3944,1.3954,1.395,1.3782,0,0,0,0,0,1.3604,1.3646,1.3664,1.373,1.3743,1.375,1.3774,1.3769,1.3795,1.3806,1.3822,1.3849,1.3891,1.3918,1.3957,1.4038,1.4044,1.4075,1.4085,1.4093,1.4102,1.4145,1.4158,1.4012,1.4012,1.4012,0,0,1.3644,1.3662,1.3689,1.374,1.3759,1.3803,1.3759,1.3808,1.3841,1.3814,1.3877,1.389,1.392,1.3994,1.4027,1.4007,1.4143,1.4102,1.4108,1.4112,1.4153,1.4167,1.4179,1.4016,1.4015,1.4015,0,0,1.3739,1.3757,1.3813,1.3832,1.3861,1.3865,1.3878,1.3903,1.391,1.3973,1.3954,1.3993,1.4064,1.4086,1.4107,1.4208,1.4192,1.4221,1.4274,1.4316,1.4327,1.4338,1.4373,1.4386,1.4229,1.4229,1.4229,0,1.3785,1.385,1.3844,1.3893,1.3916,1.3892,1.3949,1.3968,1.4009,1.4026,1.4002,1.409,1.4109,1.4187,1.4212,1.4229,1.4245,1.4218,1.4326,1.4336,1.4346,1.438,1.4393,1.4233,1.4232,1.4232,1.4232,0,1.3905,1.395,1.3992,1.403,1.4058,1.4111,1.4112,1.4141,1.4133,1.4139,1.4204,1.4225,1.4267,1.4285,1.4279,1.4363,1.4349,1.4326,1.4285,1.4363,1.4395,1.4408,1.4237,1.4236,1.4235,1.4234,0,0,1.4032,1.4064,1.408,1.4096,1.4126,1.4161,1.4213,1.4253,1.4277,1.4306,1.4349,1.4409,1.4387,1.4411,1.4407,1.4443,1.4521,1.4416,1.4416,1.4434,1.4614,1.4631,1.4646,1.451,1.4513,1.4515,1.4611,0,1.4128,1.4217,1.4212,1.4296,1.4338,1.4315,1.436,1.4383,1.439,1.4426,1.4434,1.4477,1.4445,1.4459,1.4494,1.4504,1.4557,1.4497,1.4551,1.4553,1.4544,1.4663,1.4681,1.4771,1.4624,1.4626,1.4627,0,1.4253,1.4284,1.4372,1.4393,1.4411,1.4451,1.4487,1.4522,1.4547,1.455,1.4575,1.4564,1.4616,1.4573,1.4645,1.4605,1.4626,1.4634,1.4638,1.4643,1.4595,1.4671,1.48,1.4813,1.4647,1.4645,1.4644,0,1.4336,1.44,1.446,1.4475,1.4503,1.4531,1.4544,1.4567,1.4591,1.4622,1.4638,1.4675,1.4696,1.4725,1.4725,1.4694,1.4798,1.4755,1.4801,1.4802,1.4825,1.4824,1.4959,1.4839,1.4839,1.4838,1.4838,0,1.4444,1.4499,1.4498,1.4535,1.4595,1.4589,1.4649,1.4659,1.4679,1.4718,1.4701,1.4738,1.4735,1.4772,1.4772,1.4832,1.4841,1.4845,1.4844,1.4847,1.4846,1.4861,1.4855,1.4842,1.4841,1.484,1.484,0,1.4548,1.4549,1.4613,1.4633,1.4639,1.4683,1.47,1.4735,1.474,1.4789,1.48,1.4808,1.4851,1.4853,1.4904,1.4903,1.4975,1.4968,1.4967,1.4965,1.5011,1.5007,1.5161,1.5181,1.5048,1.5049,1.505,0,1.4617,1.4658,1.4681,1.4705,1.4719,1.4759,1.4783,1.4778,1.4803,1.4834,1.4866,1.4907,1.494,1.501,1.502,1.5058,1.5051,1.5103,1.5057,1.5058,1.5052,1.5049,1.5053,1.5112,1.5113,1.5115,1.5116,0,1.4739,1.4737,1.4772,1.4806,1.4835,1.4862,1.4887,1.4908,1.4906,1.4936,1.4979,1.5004,1.5054,1.5095,1.5132,1.5145,1.5131,1.513,1.5142,1.5145,1.5142,1.5144,1.4991,1.5126,1.5125,1.5125,1.5124,1.5123,1.4827,1.4862,1.4883,1.4922,1.494,1.4964,1.4998,1.5006,1.5041,1.5081,1.5076,1.5123,1.5147,1.5194,1.5211,1.5248,1.5231,1.5249,1.5254,1.5259,1.5263,1.5136,1.5255,1.5255,1.5254,1.5254,1.5254,0,1.4948,1.496,1.4996,1.5031,1.5061,1.5043,1.5069,1.5096,1.5138,1.5161,1.5192,1.5241,1.5281,1.5293,1.5331,1.5359,1.5353,1.5369,1.5367,1.5371,1.5277,1.5262,1.5373,1.5373,1.5373,1.5373,1.5373,1.5373,1.5014,1.5072,1.5073,1.5139,1.5151,1.5197,1.5214,1.5235,1.5253,1.5308,1.534,1.5348,1.5366,1.5405,1.544,1.5443,1.5458,1.5477,1.5477,1.5389,1.5377,1.5366,1.5352,1.548,1.548,1.5568,1.5568,1.5569]},{"header":{"parameterUnit":"m.s-1","parameterCategory":1,"la1":30.2991,"la2":30.254,"lo1":-89.0895,"lo2":-89.0444,"dy":0.0017,"dx":0.0017,"nx":28,"ny":28,"refTime":"2024-07-03T21:00:00:Z","depth":0,"parameterNumber":3,"parameterNumberName":"V-component_of_WINDS"},"data":[0,0,0,0,0,0,0,0,0,0,0,0,0,0,0,0,0,0,0,0,0,0,0,0,0,0,0,0,0,0,0,0,0,0,0,0,0,0,0,0,0,0,0,0,0,0,0,0,0,0,0,0,0,0,0,0,0,0,5.3044,5.3045,0,5.3133,5.3134,5.3135,5.3092,5.3089,5.3087,5.3085,5.3168,5.3172,5.3176,0,0,0,0,0,0,0,0,0,0,0,0,0,5.2825,5.2829,5.3044,5.3045,5.3046,5.3133,5.3135,5.3136,5.3092,5.3089,5.3086,5.3084,5.3166,5.3171,5.3177,0,0,0,0,0,0,0,0,0,0,0,0,0,5.2917,5.283,5.3044,5.3035,5.3035,5.3133,5.3135,5.3136,5.3093,5.3089,5.3086,5.3082,5.3165,5.3171,5.3177,5.3286,0,0,5.3197,5.32,0,0,0,0,0,0,0,0,5.2912,5.2925,5.3035,5.3036,5.3036,5.3098,5.3088,5.3186,5.3093,5.307,5.3085,5.3081,5.3147,5.3155,5.3179,5.329,5.3294,5.3198,5.3202,5.3205,5.3206,0,0,0,0,0,0,0,5.2906,5.2921,5.3079,5.3037,5.3037,5.3023,5.3033,5.3106,5.3126,5.3072,5.3069,5.3081,5.3146,5.3172,5.318,5.3295,5.3198,5.3204,5.3208,5.321,5.3498,5.3501,0,0,0,0,0,0,5.2901,5.2916,5.3076,5.3082,5.2965,5.303,5.304,5.3081,5.3126,5.3129,5.3084,5.3079,5.3163,5.3173,5.3183,5.3312,5.3205,5.3211,5.3214,5.3494,5.3499,5.3503,0,0,0,0,0,0,5.2896,5.2916,5.3072,5.2998,5.3017,5.3038,5.3084,5.3085,5.3111,5.3135,5.3137,5.3108,5.3161,5.3174,5.3261,5.3314,5.3214,5.322,5.349,5.3496,5.3501,5.3572,0,0,0,0,0,0,5.289,5.2914,5.2958,5.3,5.3021,5.3152,5.3087,5.3089,5.3124,5.3118,5.3157,5.316,5.3159,5.3252,5.3268,5.3321,5.3225,5.3485,5.3492,5.3499,5.3565,5.3579,5.3592,0,0,0,0,0,5.2883,5.2973,5.2961,5.298,5.3077,5.3156,5.3167,5.3166,5.3128,5.3171,5.3185,5.3159,5.3306,5.3261,5.3279,5.3335,5.3482,5.349,5.3498,5.3559,5.3576,5.3591,0,0,0,0,0,0,5.2935,5.2979,5.2965,5.3073,5.3111,5.3148,5.3202,5.3185,5.3233,5.3225,5.3219,5.3228,5.3318,5.3335,5.3284,5.3442,5.3387,5.34,5.3427,5.3444,5.3457,5.3451,5.323,0,0,0,0,0,5.2959,5.3022,5.3056,5.3147,5.3167,5.3182,5.3216,5.3212,5.325,5.3265,5.3286,5.3321,5.3375,5.3411,5.3462,5.3567,5.3574,5.3615,5.3628,5.3639,5.3649,5.3704,5.3722,5.353,5.353,5.353,0,0,5.3009,5.3041,5.3081,5.3158,5.3188,5.325,5.3195,5.3264,5.3309,5.3274,5.3358,5.3375,5.3414,5.351,5.3554,5.3527,5.3703,5.3649,5.3658,5.3662,5.3714,5.3732,5.3748,5.3536,5.3535,5.3534,0,0,5.3133,5.3164,5.3243,5.3274,5.332,5.3329,5.3348,5.3387,5.3398,5.3483,5.3458,5.351,5.3603,5.3632,5.3658,5.3791,5.3768,5.3808,5.3877,5.393,5.3945,5.3959,5.4004,5.4021,5.3818,5.3818,5.3818,0,5.3188,5.3284,5.3285,5.3356,5.3389,5.3364,5.3441,5.347,5.3529,5.3551,5.3521,5.3638,5.3662,5.3764,5.3797,5.382,5.3838,5.3803,5.3944,5.3957,5.3969,5.4013,5.403,5.3823,5.3822,5.3822,5.3821,0,5.3349,5.3416,5.3473,5.3534,5.3574,5.3648,5.3656,5.3696,5.3688,5.3699,5.3784,5.3813,5.3869,5.3893,5.3885,5.3993,5.3975,5.3945,5.389,5.3992,5.4033,5.4049,5.3829,5.3828,5.3826,5.3825,0,0,5.3507,5.3568,5.3589,5.3616,5.3664,5.3714,5.3785,5.3842,5.3875,5.3916,5.3974,5.4053,5.4026,5.4056,5.4051,5.4098,5.4199,5.4062,5.4062,5.4085,5.4317,5.4339,5.4358,5.4184,5.4188,5.419,5.4313,0,5.3633,5.3761,5.3763,5.3879,5.3939,5.3915,5.3977,5.4011,5.4023,5.4073,5.4084,5.414,5.4101,5.4118,5.4164,5.4177,5.4245,5.4168,5.4235,5.4237,5.4225,5.4379,5.4403,5.4518,5.4329,5.4332,5.4334,0,5.3796,5.3846,5.3969,5.4008,5.4033,5.4089,5.414,5.4189,5.4226,5.4231,5.4265,5.4253,5.4322,5.4266,5.4359,5.4307,5.4334,5.4344,5.4348,5.4353,5.4291,5.4387,5.4554,5.4571,5.4359,5.4357,5.4355,0,5.3897,5.3994,5.408,5.4103,5.4151,5.4191,5.4212,5.4246,5.428,5.4324,5.4345,5.4396,5.4423,5.4461,5.4461,5.4421,5.4554,5.4499,5.4558,5.4558,5.4586,5.4584,5.4758,5.4606,5.4606,5.4605,5.4605,0,5.4036,5.4112,5.4126,5.4178,5.4261,5.4262,5.4343,5.436,5.439,5.4443,5.4425,5.4474,5.4472,5.4521,5.4522,5.4597,5.461,5.4614,5.4612,5.4615,5.4614,5.4631,5.4622,5.461,5.4609,5.4608,5.4607,0,5.4162,5.4175,5.4267,5.4305,5.4317,5.4376,5.4407,5.4455,5.4465,5.4532,5.4548,5.4563,5.462,5.4624,5.4689,5.4689,5.4781,5.4771,5.4769,5.4767,5.4824,5.4818,5.5015,5.504,5.4873,5.4874,5.4876,0,5.425,5.4308,5.4353,5.4389,5.4413,5.447,5.4505,5.4507,5.4543,5.459,5.4631,5.4687,5.4732,5.4823,5.4837,5.4887,5.4877,5.4943,5.4884,5.4884,5.4876,5.4872,5.4877,5.4954,5.4955,5.4957,5.4958,0,5.4402,5.4406,5.4459,5.4514,5.4557,5.4599,5.4639,5.4668,5.4674,5.4715,5.4775,5.4809,5.4877,5.4931,5.4979,5.4997,5.4978,5.4977,5.4993,5.4995,5.499,5.4992,5.4798,5.4972,5.497,5.4969,5.4969,5.4968,5.451,5.456,5.46,5.4659,5.469,5.4727,5.4774,5.4791,5.4842,5.4898,5.4895,5.496,5.4993,5.5057,5.5078,5.5127,5.5104,5.5128,5.5133,5.5139,5.5144,5.4984,5.5136,5.5135,5.5135,5.5135,5.5134,0,5.4661,5.4685,5.474,5.4797,5.4843,5.4824,5.4866,5.4905,5.4963,5.4998,5.5042,5.5109,5.5162,5.5181,5.5231,5.5266,5.5258,5.5279,5.5275,5.528,5.5162,5.5143,5.5284,5.5284,5.5284,5.5284,5.5284,5.5284,5.4744,5.4827,5.4835,5.4932,5.4955,5.5021,5.5047,5.508,5.5107,5.5184,5.5229,5.5242,5.5269,5.5321,5.5367,5.5371,5.5389,5.5414,5.5414,5.5303,5.5288,5.5274,5.5255,5.5418,5.5418,5.5527,5.5528,5.5528]}]]